Theta_e
323 328 329 330 330 332 332 332 332 333 332 333 332 332 332 331 331 330 330 329 329 328 328 328 327 326 327 327 326 324 325 317 315 311 314 321 325 325 326 326 327 328 329 315 308 306 304 305 308 305 308 306 305 307 312 312 309 302 296 292 290 290 293 294 295 294 295 296 296 297 298 299 296 299 301 301 300 302 304 308 311 320 320 323 324 327 329 329
325 325 329 329 329 331 331 331 332 332 332 332 332 332 332 332 331 330 330 329 328 328 328 327 327 327 327 326 325 326 319 317 312 311 314 322 325 325 322 325 325 327 323 308 305 304 303 303 303 305 305 303 311 305 311 307 307 298 294 291 290 291 294 297 296 296 298 296 298 299 297 300 300 298 299 297 297 299 300 302 310 316 320 324 325 326 327 328
325 325 328 329 329 330 331 331 331 331 332 331 331 331 331 331 330 330 329 329 328 328 328 327 327 326 326 325 325 324 317 313 312 310 316 328 327 326 323 326 326 325 312 310 308 306 304 305 304 303 301 299 303 301 309 304 306 299 294 290 291 295 296 296 295 298 297 298 297 298 298 298 299 299 300 297 296 296 298 300 304 315 318 320 323 325 326 327
323 324 326 328 329 330 330 331 331 331 331 331 331 331 331 330 329 330 329 329 328 328 328 327 326 326 325 324 325 321 320 316 311 316 322 330 328 327 325 324 326 323 317 315 310 308 307 307 306 303 302 301 300 306 302 304 300 298 296 293 295 296 296 296 296 295 297 300 299 299 297 297 298 298 298 295 295 294 296 303 303 310 319 321 322 324 325 325
322 322 324 328 329 330 330 331 331 331 331 331 331 331 330 329 329 329 329 329 329 328 328 327 326 324 323 323 324 321 317 309 310 319 322 330 330 327 326 323 326 320 319 315 315 309 307 305 303 304 303 297 300 302 299 302 301 301 295 297 298 296 295 297 296 296 296 298 299 297 297 296 298 298 297 296 294 293 296 299 303 312 322 322 321 323 324 324
322 322 321 326 328 329 329 330 331 331 331 330 330 330 330 329 329 329 329 329 329 328 327 327 325 323 322 323 320 319 314 296 312 314 329 333 331 327 326 324 327 319 320 316 314 310 305 304 302 301 300 299 296 298 299 301 302 294 295 298 297 296 297 297 296 295 295 298 299 297 298 298 297 296 297 297 295 295 297 298 301 312 323 324 324 323 323 323
322 321 321 324 327 328 329 330 331 331 331 330 330 330 330 329 329 329 329 328 329 327 327 326 324 323 322 321 318 319 312 314 312 322 334 330 330 327 326 327 325 316 316 315 316 310 305 304 301 299 302 301 299 297 302 300 303 298 295 297 298 298 297 297 297 294 294 300 299 299 299 298 295 294 297 296 296 298 301 302 300 311 323 324 322 322 322 323
322 322 320 320 326 327 328 329 330 330 330 330 330 330 329 329 329 329 328 328 328 327 327 326 324 322 322 317 315 310 309 310 316 322 331 329 326 325 326 325 315 313 312 312 312 308 306 303 300 301 301 296 297 301 301 299 300 298 297 297 297 296 297 296 294 295 295 297 297 298 298 297 295 295 296 296 299 301 305 307 303 311 320 322 321 320 321 322
322 322 321 320 321 325 326 329 329 329 330 330 329 330 329 329 328 328 328 328 328 327 326 325 323 323 323 318 313 307 307 316 318 329 331 328 323 322 324 319 312 310 310 311 312 315 311 305 304 301 303 297 299 297 297 298 295 297 297 296 296 297 298 296 297 297 296 301 296 297 295 296 296 298 296 297 298 301 304 309 309 312 317 319 319 320 320 320
322 322 321 321 321 324 325 327 328 329 329 329 329 329 329 329 328 328 328 328 327 326 325 324 323 323 320 315 312 305 314 317 325 329 329 328 327 324 321 316 310 309 308 308 310 311 308 310 305 307 305 301 300 296 297 296 297 298 296 295 295 296 297 298 297 297 297 299 297 296 294 296 296 297 293 296 298 301 304 308 310 311 312 316 317 318 320 320
322 322 321 321 322 324 325 326 327 329 329 329 329 329 329 328 328 327 328 327 326 326 325 323 323 322 316 317 308 304 316 320 317 325 326 327 324 320 315 312 310 308 308 307 307 311 312 310 308 307 304 298 298 296 297 297 299 297 296 295 295 296 296 296 295 296 297 297 296 295 294 295 295 297 292 295 300 302 304 306 309 311 311 313 315 315 318 320
322 322 321 321 323 324 325 326 327 328 328 328 328 328 328 327 327 327 327 326 326 325 324 324 323 321 318 314 310 311 317 319 318 324 322 323 321 320 316 313 311 309 308 305 307 310 311 312 308 306 302 306 296 297 300 298 299 296 297 295 294 294 294 295 294 295 296 295 296 296 293 293 294 294 297 296 302 300 303 305 306 307 309 310 313 314 316 319
321 322 321 321 323 324 325 325 327 327 328 328 327 327 327 326 326 326 327 326 326 325 324 324 323 320 315 306 312 315 317 324 322 317 318 320 316 314 313 311 312 310 309 307 306 309 311 311 311 306 306 302 299 296 298 299 298 297 297 294 293 293 290 294 296 295 295 295 295 296 286 288 293 296 296 297 300 298 299 301 303 304 304 307 310 312 314 315
320 321 321 321 322 323 324 325 326 327 327 327 327 327 327 326 326 327 326 324 325 325 324 324 320 318 314 309 313 319 324 325 323 316 316 316 314 313 310 310 310 308 309 307 308 311 311 311 311 309 305 302 298 301 297 297 298 292 294 294 287 287 285 293 294 293 295 297 295 295 288 287 291 295 296 296 298 298 297 298 299 301 302 304 307 309 311 312
320 320 321 321 322 322 323 325 326 327 327 327 326 326 325 325 326 326 326 324 324 324 324 322 318 314 308 311 318 322 324 323 319 316 316 312 311 307 307 308 307 308 309 306 307 309 311 309 307 305 302 303 300 296 293 293 294 293 291 286 289 288 287 293 295 294 294 295 296 294 289 289 292 293 294 296 296 297 297 296 297 298 299 301 304 306 308 311
320 320 320 321 322 322 322 323 325 326 327 326 326 325 324 325 325 325 326 324 324 323 321 314 314 315 308 304 311 323 321 315 317 320 316 313 310 307 307 306 306 305 305 303 308 311 310 308 302 303 301 300 296 293 290 289 291 292 289 285 286 286 288 291 294 293 296 293 295 293 288 290 291 293 296 295 297 296 296 295 295 297 298 298 302 306 308 309
319 320 320 321 322 322 322 322 324 326 326 325 324 323 323 324 325 325 324 323 320 319 316 310 313 314 302 308 318 313 311 317 317 319 316 313 310 308 306 304 302 302 303 303 305 309 308 305 303 301 300 296 298 293 286 285 285 286 288 285 287 287 286 285 290 294 295 293 291 292 290 289 291 293 295 296 296 295 295 294 294 297 298 298 300 305 307 309
319 320 320 321 322 321 321 322 323 325 324 323 322 322 322 323 324 323 320 317 315 314 313 314 313 308 305 308 304 308 318 317 315 314 315 315 312 307 305 302 303 301 302 299 302 301 303 300 301 294 295 294 294 291 285 281 284 283 286 285 286 287 288 288 288 291 294 294 292 290 290 291 292 293 294 295 296 295 295 295 295 295 297 298 298 302 305 306
319 320 319 320 321 321 321 322 323 323 323 323 323 324 324 323 319 316 310 309 306 302 299 300 303 296 296 303 310 311 315 319 315 310 308 308 309 307 306 305 303 300 297 296 295 298 298 297 297 293 289 291 291 291 289 289 290 289 289 287 285 285 285 287 290 292 295 291 290 289 290 291 293 292 294 294 294 293 295 294 293 293 296 297 298 300 302 304
319 320 319 320 321 321 321 322 323 323 323 321 319 317 313 306 304 302 307 307 304 303 304 305 308 304 305 307 307 312 317 318 310 308 308 310 307 304 303 302 301 301 296 293 294 295 297 291 288 288 291 293 293 293 293 293 292 291 293 290 289 287 288 290 292 293 293 291 290 290 291 291 292 291 293 294 294 293 293 293 294 294 295 296 297 299 301 302
319 319 320 320 321 321 322 322 322 322 322 319 316 310 301 300 295 293 299 303 307 307 304 306 308 307 303 307 308 309 307 308 313 306 307 310 307 304 299 299 297 294 295 295 294 298 296 290 289 292 293 294 294 294 294 293 292 291 290 290 289 289 287 291 292 293 293 291 289 289 289 290 291 292 293 293 292 294 294 294 294 295 295 296 297 298 299 301
319 319 319 320 320 320 321 322 321 321 320 317 313 308 309 308 311 313 305 296 304 307 306 306 309 307 304 308 310 313 312 305 304 305 308 307 304 299 297 297 294 292 294 295 294 291 289 288 291 293 295 295 294 294 294 292 291 291 290 288 287 287 289 292 292 294 293 292 287 288 289 290 292 292 292 292 294 295 295 296 296 296 295 295 296 296 298 298
319 319 319 319 319 320 321 321 320 320 316 313 309 310 308 313 314 313 311 304 300 307 303 305 305 306 303 307 309 313 306 302 300 303 303 305 301 300 298 295 293 294 294 293 289 287 285 288 293 296 295 294 292 292 293 292 291 289 290 287 286 289 288 287 290 292 293 288 287 287 287 289 292 291 292 293 294 295 295 296 296 296 296 297 297 298 298 298
319 319 319 319 320 320 320 320 320 316 313 312 311 310 314 314 314 313 306 297 297 302 303 305 307 305 302 302 308 310 305 304 305 300 306 304 299 300 298 296 293 293 291 292 292 289 287 291 294 295 294 293 291 291 291 290 288 291 293 290 288 289 289 287 289 291 291 291 290 287 285 285 287 289 291 294 295 295 295 295 295 296 297 298 299 297 298 299
318 319 319 319 319 320 319 319 313 311 314 312 310 312 315 314 314 310 303 298 300 298 307 304 309 305 304 311 311 306 305 304 307 306 305 304 300 298 297 299 295 291 292 293 292 290 290 293 295 292 292 292 292 290 291 291 287 288 291 291 291 292 290 289 290 289 287 287 290 289 279 278 283 287 291 294 293 293 293 294 295 296 296 296 296 298 298 299
318 319 319 319 319 319 320 311 309 313 311 308 310 312 314 314 311 308 303 291 287 295 300 294 306 298 310 302 307 304 304 299 304 305 305 305 306 300 298 296 296 290 293 292 291 291 291 291 293 292 291 291 292 290 292 292 288 287 287 293 293 292 290 290 289 289 282 280 289 290 282 275 282 285 287 289 289 292 292 293 295 296 296 296 297 298 298 299
318 318 319 319 319 319 311 305 314 312 306 307 311 311 314 312 310 307 297 285 284 293 292 301 299 299 307 302 303 303 290 292 302 306 303 306 301 305 295 293 295 296 296 295 290 288 289 289 291 293 292 291 290 289 292 293 289 285 290 295 294 292 290 289 289 287 284 287 290 289 282 279 281 286 288 290 289 290 290 291 292 294 295 295 297 297 297 299
317 318 318 319 319 317 312 313 310 307 308 311 312 312 311 309 310 305 291 278 277 297 291 294 299 308 304 302 303 298 295 301 295 300 304 304 302 298 296 293 293 293 296 294 284 293 291 288 290 291 291 290 289 291 294 294 290 288 294 295 293 292 290 290 289 286 286 285 281 282 287 282 277 284 288 290 290 290 291 291 292 294 295 295 296 298 298 298
317 318 318 318 318 318 317 313 310 307 312 313 311 310 310 310 307 296 284 276 289 292 305 294 309 302 299 301 298 296 296 300 294 299 302 302 303 297 293 293 295 293 294 294 288 290 290 291 293 294 292 289 292 293 294 295 290 293 295 297 296 295 293 292 286 286 286 281 278 282 284 278 278 282 287 289 288 288 289 292 294 295 296 296 296 297 298 298
318 318 318 318 318 314 313 314 311 312 313 311 308 308 310 307 297 286 280 272 293 283 296 296 297 294 297 294 294 294 295 294 295 297 300 298 298 299 296 298 295 294 291 293 291 291 293 293 295 293 291 293 293 292 292 294 294 296 295 293 291 289 287 284 284 282 283 278 278 280 284 282 278 282 286 287 288 288 290 290 291 293 293 295 296 297 297 296
318 318 318 317 312 311 312 307 310 313 312 311 309 308 305 300 288 281 275 283 293 291 295 293 292 298 293 291 289 293 294 293 294 296 293 297 294 295 295 293 297 291 287 288 287 290 290 292 293 291 293 291 294 293 294 295 295 296 290 287 288 285 283 283 283 282 277 273 276 281 283 283 277 277 283 287 288 288 292 291 294 293 294 295 295 295 296 296
317 318 318 316 314 315 307 305 311 313 312 311 308 302 299 284 287 278 277 295 283 286 287 288 294 294 292 294 292 291 290 293 294 294 291 292 291 290 292 289 291 285 285 286 285 288 286 288 291 292 295 294 291 292 291 293 295 292 289 288 284 280 280 277 280 277 274 273 280 279 282 283 282 283 286 287 289 289 288 292 292 291 293 295 297 297 297 297
317 317 317 315 314 312 312 313 313 312 311 310 304 300 291 283 275 283 283 287 282 290 287 294 291 293 292 291 289 291 292 289 293 292 293 291 290 290 292 291 292 290 283 284 285 285 285 288 291 291 292 294 294 289 285 286 289 289 287 283 282 276 273 270 270 273 273 278 280 280 281 280 281 284 291 292 296 295 292 289 290 293 295 297 298 296 297 296
317 317 313 312 313 312 312 313 313 312 308 306 300 293 289 281 278 291 284 285 285 291 292 290 292 293 292 289 290 292 288 291 292 290 291 288 289 287 289 291 292 290 287 285 285 285 281 280 286 289 286 293 292 291 291 290 289 290 289 288 284 283 275 271 273 273 274 275 278 281 279 275 278 283 285 292 295 295 292 291 291 292 293 296 297 296 295 295
316 315 312 311 311 312 313 313 312 311 307 302 295 289 280 280 284 283 282 284 287 291 289 293 290 290 289 290 290 293 290 285 291 290 288 288 286 287 287 290 292 291 289 286 285 283 285 283 287 292 291 291 292 293 294 292 291 289 289 289 286 285 284 279 279 277 274 275 277 278 278 278 282 285 290 289 290 290 291 291 293 292 294 294 295 296 296 297
314 310 311 307 308 310 313 313 311 309 304 297 290 284 281 285 282 287 285 291 290 288 289 292 290 287 286 284 289 290 292 289 289 289 286 288 289 287 290 291 291 293 290 287 285 282 283 282 288 291 292 290 291 292 293 293 284 288 288 284 285 289 286 280 280 281 278 275 273 277 280 280 284 289 293 292 289 290 290 291 290 290 289 290 292 293 293 294
307 309 304 306 307 311 312 312 311 306 301 294 288 283 287 289 288 289 293 290 290 292 289 284 285 286 284 284 286 289 289 292 289 288 283 288 285 289 289 291 294 293 294 292 284 287 284 282 287 287 288 290 291 288 292 290 291 288 283 288 290 291 289 285 279 278 275 272 273 277 278 278 281 279 287 288 289 289 289 292 292 290 289 290 292 292 293 293
306 306 306 305 308 311 312 311 309 304 298 292 286 289 291 287 292 292 292 292 292 292 288 287 286 289 285 285 284 288 290 288 287 287 284 288 282 292 290 290 293 294 294 293 289 287 290 281 285 287 287 289 292 292 291 291 293 289 287 294 289 282 282 283 282 274 274 272 270 276 277 277 278 281 283 286 288 290 290 291 291 292 290 291 292 292 291 292
306 303 298 304 310 311 310 310 307 300 294 288 287 287 290 289 293 292 294 294 294 291 288 288 286 287 288 285 287 289 289 285 288 285 283 285 282 289 291 292 290 293 294 292 290 287 288 282 282 287 287 288 289 288 284 285 289 291 291 288 289 287 284 281 282 280 279 273 274 272 277 277 281 281 284 289 288 289 290 289 291 293 292 292 292 293 293 294
302 298 296 307 309 310 309 308 302 297 291 285 288 289 292 289 292 294 295 294 290 290 287 287 289 286 287 287 289 287 289 287 287 284 286 285 286 290 290 294 291 292 294 292 291 292 285 285 278 283 288 289 283 285 285 287 285 284 285 283 286 285 286 285 285 282 278 273 272 271 273 274 280 286 288 291 292 292 291 290 292 293 293 292 292 294 295 297
304 298 296 308 308 308 307 302 296 291 289 291 292 289 289 290 292 293 295 296 293 295 289 290 289 287 288 287 287 291 288 287 288 286 286 284 288 282 290 293 293 291 293 293 291 288 285 284 281 282 283 282 282 287 287 289 290 288 288 286 288 283 281 281 280 283 280 279 274 272 275 276 284 288 292 292 292 290 289 290 292 292 292 291 292 293 295 297
298 291 294 308 308 307 301 293 293 294 290 288 287 289 288 298 292 292 294 295 295 290 296 292 291 289 289 289 290 290 288 287 288 287 286 284 288 287 289 294 294 295 293 287 288 290 287 283 284 278 280 283 287 290 288 288 286 288 287 287 290 286 285 281 279 280 280 280 278 275 273 277 287 288 290 291 290 290 290 291 292 294 293 293 295 295 295 298
297 294 304 307 308 304 297 291 292 290 287 289 292 290 293 293 292 293 292 293 291 293 293 292 290 290 291 291 290 290 290 286 289 287 288 287 288 290 291 294 295 295 295 287 290 289 291 283 280 279 284 284 286 288 288 287 289 288 288 286 286 285 285 282 281 281 283 278 278 277 276 279 285 284 286 284 285 286 286 287 289 291 291 293 295 298 297 297
297 296 298 306 308 303 294 285 285 287 287 290 291 290 292 291 292 291 292 292 292 291 291 290 291 293 291 292 292 289 292 284 289 289 286 289 289 293 292 294 296 293 293 290 292 292 284 281 284 277 277 280 280 283 284 285 287 282 283 285 287 288 285 283 283 281 281 280 280 278 277 282 285 286 289 288 288 289 289 288 288 290 290 292 293 295 297 297
298 300 299 300 305 300 290 291 289 287 287 287 288 288 290 291 291 294 293 291 291 291 291 289 292 293 290 293 292 292 292 289 285 290 289 288 291 291 293 295 297 294 295 294 297 295 286 283 285 278 276 274 273 275 279 282 282 283 282 283 288 288 286 284 281 281 278 278 280 277 280 285 288 288 290 289 287 288 288 289 289 289 289 291 293 293 295 296
294 286 293 295 299 297 296 294 292 290 286 286 286 286 288 288 291 292 293 291 292 291 291 292 292 294 291 291 288 288 289 290 289 287 289 287 287 287 291 293 295 294 295 296 295 294 283 284 287 286 284 282 284 282 285 287 286 285 286 286 287 288 288 286 283 281 282 280 280 284 286 285 285 287 287 289 287 288 290 289 289 290 289 289 290 292 293 295
297 290 290 287 294 294 292 295 292 291 288 291 286 288 287 289 289 291 293 289 293 293 292 293 291 291 289 290 289 288 289 287 287 289 286 287 285 287 289 290 291 292 295 294 294 290 283 284 286 286 286 287 286 285 287 290 286 288 286 286 288 288 287 286 285 283 284 281 280 286 287 284 286 286 286 287 287 287 288 288 288 288 289 290 290 291 292 292
289 292 295 295 289 286 287 289 293 290 291 291 288 291 287 288 289 287 290 291 291 292 290 290 292 293 292 290 290 286 286 286 286 286 286 284 286 288 289 289 290 291 291 291 291 288 285 285 285 284 284 285 285 287 288 288 288 288 288 288 286 288 287 286 286 288 285 283 282 287 286 285 286 287 289 288 288 290 290 290 291 290 290 289 290 292 293 293
292 294 295 298 288 291 291 292 293 291 289 290 287 290 287 289 287 289 288 288 291 290 291 286 289 291 292 292 291 286 287 283 282 285 285 284 286 282 282 286 289 286 289 287 288 284 286 280 282 285 283 285 285 286 286 287 285 285 286 287 288 287 287 288 288 289 288 286 288 288 287 287 290 289 291 291 290 290 290 289 291 291 291 291 291 293 294 293
287 291 288 292 290 292 292 292 292 290 287 290 284 288 289 289 288 289 290 289 287 288 291 290 289 289 291 291 291 288 288 290 289 285 286 288 284 282 284 283 285 285 286 286 289 288 287 280 288 283 281 281 284 284 285 285 285 283 284 287 287 287 288 288 289 289 289 288 288 288 285 286 292 292 291 291 291 290 291 290 293 294 292 292 292 294 294 294
289 289 290 290 286 290 292 292 291 289 286 288 285 287 288 289 289 291 290 292 292 289 290 290 290 290 290 290 289 290 292 290 291 292 291 292 288 290 290 284 288 286 286 286 285 286 286 277 282 281 279 276 281 283 282 282 282 283 283 284 285 286 285 287 286 288 285 285 286 285 284 286 290 292 292 291 290 290 291 292 291 291 291 292 292 293 294 294
291 293 292 292 286 292 289 291 291 289 285 288 289 288 288 288 290 291 288 290 292 294 293 292 291 292 288 289 289 291 292 292 294 294 294 296 296 293 291 291 293 291 288 289 288 287 285 281 281 279 277 276 280 284 282 281 281 279 282 285 287 287 289 289 289 289 289 290 286 284 286 292 289 290 290 289 290 291 291 292 291 291 291 293 293 293 294 294
Wind_Speed
17 21 23 24 25 24 24 24 23 23 23 22 22 21 21 20 21 20 17 18 18 17 18 17 16 15 14 13 12 10 9 4 4 2 2 3 5 1 7 8 10 10 11 8 8 8 4 2 1 2 1 2 3 0 2 0 1 2 2 3 2 5 1 3 4 4 3 8 6 5 6 7 5 1 1 3 5 6 4 8 2 7 6 3 6 14 13 13
18 19 25 24 25 24 24 24 24 23 23 24 24 22 20 18 20 20 19 18 17 17 16 16 16 15 15 13 10 9 5 3 4 3 7 6 11 9 3 5 3 9 8 3 7 6 4 4 4 7 2 0 0 1 1 1 1 3 2 3 8 3 5 1 1 2 7 4 12 8 4 8 8 8 4 5 3 6 5 3 3 8 6 8 10 13 14 13
16 17 22 25 25 24 24 24 24 24 23 24 24 22 21 19 20 18 19 18 17 16 16 17 17 16 14 12 11 10 5 2 2 5 6 14 15 14 9 7 6 6 3 1 0 3 2 0 2 2 2 1 1 4 0 1 1 3 4 5 6 4 3 2 3 3 4 8 7 7 5 5 5 3 2 4 7 6 9 8 2 8 9 9 9 11 12 12
16 17 20 27 26 25 25 24 24 24 24 25 23 22 21 21 21 20 19 18 18 18 17 17 16 15 13 12 10 6 2 2 4 3 1 18 15 12 10 6 8 5 4 2 4 1 4 1 1 1 2 1 3 2 2 3 2 2 2 4 4 3 3 2 3 6 4 12 10 10 4 4 4 4 4 5 7 5 5 9 12 12 14 12 11 12 11 12
18 15 18 27 28 28 27 26 25 25 24 23 23 22 21 20 21 21 19 17 18 18 17 17 16 15 12 10 7 3 4 1 4 3 2 17 17 14 12 9 6 7 6 3 2 2 4 1 1 1 2 2 1 1 3 3 3 1 6 4 3 0 1 2 4 4 3 5 12 6 9 6 3 3 5 11 9 9 9 9 8 15 16 16 14 12 11 12
19 19 19 22 28 27 27 26 26 25 26 25 24 23 22 21 20 20 20 19 20 19 18 17 16 15 12 8 3 1 5 9 1 2 0 14 16 16 13 11 8 6 5 6 3 5 8 6 4 2 1 1 1 0 4 3 3 2 4 4 2 2 2 0 3 5 3 4 8 9 5 6 6 4 5 9 7 4 6 7 10 16 17 17 15 14 12 12
19 20 19 19 27 27 27 26 26 25 25 25 24 24 22 22 20 19 21 21 19 21 19 18 16 15 13 8 3 1 6 2 1 2 4 12 15 17 15 11 11 7 5 5 4 3 2 2 5 2 0 1 6 0 6 3 1 4 5 2 3 0 4 2 1 5 3 10 8 4 6 7 6 5 3 5 3 4 3 3 10 16 14 13 14 15 17 16
19 19 19 17 21 29 27 27 26 26 25 25 25 24 23 22 21 20 20 21 21 20 19 19 17 15 13 5 5 1 1 4 1 3 8 13 12 15 13 8 10 6 6 5 6 8 2 3 5 2 3 2 2 3 4 6 3 7 6 1 1 2 1 1 2 1 2 2 1 7 7 7 6 4 3 5 4 4 2 3 11 12 14 14 15 14 14 14
19 17 16 19 18 24 27 27 26 26 25 25 25 24 24 23 22 20 20 21 19 20 19 18 17 15 10 5 4 4 7 2 3 4 7 11 11 12 12 9 9 10 6 4 3 4 3 4 5 3 0 7 5 3 2 4 7 2 4 1 2 1 0 1 1 0 1 0 3 6 2 1 2 0 5 6 6 5 2 9 10 14 15 14 14 15 14 13
20 18 18 17 20 21 27 26 26 26 25 25 25 25 24 23 22 22 21 20 19 18 19 19 17 14 8 5 4 7 0 2 3 4 6 10 10 11 9 11 11 9 9 5 4 5 5 3 7 4 4 6 5 4 4 4 4 2 4 2 4 2 2 0 2 1 0 1 1 7 3 1 1 3 4 4 7 4 6 9 10 13 15 14 12 11 11 13
19 18 19 19 19 21 26 26 25 26 25 25 24 24 25 24 23 23 22 21 19 20 21 21 18 12 6 5 8 9 2 1 1 5 7 8 11 10 9 11 11 9 8 6 6 5 5 4 8 4 2 2 9 6 6 1 4 4 5 4 2 1 1 1 1 1 0 1 2 5 2 0 2 0 5 5 7 8 11 9 9 10 11 10 12 12 10 11
19 19 20 21 21 23 24 26 26 25 25 25 25 26 25 24 24 23 23 21 20 21 21 19 18 8 4 6 8 5 2 1 3 3 6 9 8 9 8 11 11 10 11 8 5 6 5 2 9 5 6 8 5 6 3 4 4 3 9 7 2 1 2 1 3 2 1 2 2 2 3 1 1 6 7 5 10 7 11 10 11 10 9 9 9 10 9 11
20 21 21 22 22 24 28 27 26 26 26 25 25 24 24 25 24 24 23 21 23 21 20 19 8 7 9 7 4 3 3 2 6 2 4 2 2 2 3 8 11 11 10 11 10 5 6 6 8 8 5 4 7 5 4 5 6 2 2 4 1 0 2 6 0 1 3 1 1 2 3 7 10 11 5 4 9 6 9 9 9 9 9 8 9 9 9 7
21 21 22 22 21 21 28 27 26 25 26 25 25 25 25 25 26 26 25 24 23 21 20 16 7 6 8 3 1 3 3 4 5 3 6 4 6 1 3 5 5 4 6 7 9 7 8 11 11 6 2 3 3 8 10 5 3 5 3 4 4 4 4 4 4 5 4 1 2 1 5 7 6 8 6 5 8 11 10 8 8 8 8 8 9 9 9 9
23 23 22 23 22 19 19 24 25 26 26 25 26 25 25 26 26 27 24 25 23 20 19 10 4 7 4 1 2 2 5 4 1 3 6 8 7 3 3 4 7 6 4 8 9 5 8 14 13 3 1 3 6 7 9 3 2 2 4 6 1 6 3 2 1 7 8 0 1 3 3 7 7 6 3 8 6 8 9 8 8 7 7 8 8 9 9 10
24 25 24 23 23 21 19 19 23 24 25 26 26 25 26 24 23 26 24 21 23 20 13 10 4 3 4 5 2 4 3 6 7 7 5 9 8 8 7 8 4 4 4 3 4 8 6 8 9 6 1 9 9 7 8 4 2 3 4 2 4 3 4 1 2 4 1 3 0 3 5 2 4 2 1 5 9 8 9 7 7 8 8 7 8 8 8 7
26 25 25 24 25 25 24 21 22 26 26 27 27 25 25 27 27 23 21 21 14 10 6 8 7 2 5 1 3 6 6 6 5 6 6 8 8 5 9 7 4 4 4 5 7 13 8 5 3 2 5 7 6 6 6 6 5 6 2 3 3 7 2 3 3 2 1 4 5 2 2 4 2 2 1 2 5 6 7 7 7 8 8 8 7 8 9 9
27 26 26 26 27 28 27 24 22 25 25 25 25 25 23 25 28 25 18 13 10 6 5 5 5 7 7 5 10 10 4 6 2 5 9 8 8 10 9 7 3 8 8 5 4 13 9 6 6 6 6 9 9 7 8 8 7 4 2 3 3 1 7 7 5 5 6 2 6 3 4 7 8 3 3 4 1 6 7 8 8 8 7 7 7 7 8 9
28 28 27 26 29 31 31 29 27 25 25 26 23 26 28 27 13 10 15 12 12 7 7 7 10 13 10 21 5 8 4 7 6 9 9 11 5 8 8 1 11 12 8 8 3 11 8 5 9 8 11 12 12 9 8 8 7 6 7 6 4 6 4 5 5 2 12 6 4 7 8 10 13 5 4 4 4 5 7 5 4 5 7 8 8 9 8 9
29 28 28 27 30 31 33 33 28 24 29 23 20 17 11 11 8 5 6 14 15 16 3 20 17 5 8 18 11 4 9 11 10 8 11 9 10 9 7 6 6 8 9 9 6 8 7 8 12 13 10 10 8 7 8 15 7 4 2 5 7 7 3 2 2 1 3 3 7 9 10 8 9 6 7 6 3 3 5 5 6 5 7 8 9 10 11 11
30 29 28 27 31 33 31 33 33 28 33 21 21 18 12 18 20 14 13 13 12 10 7 13 14 4 3 5 13 18 13 6 3 9 13 8 9 13 7 8 8 8 9 10 11 3 10 10 10 11 11 11 9 9 10 13 8 7 5 4 7 5 4 2 2 1 0 4 4 4 4 7 9 6 8 4 4 9 11 9 8 9 7 8 11 11 11 12
31 31 29 28 27 33 30 32 33 31 28 19 17 11 8 12 3 5 15 9 7 7 2 16 14 10 2 12 16 15 8 7 2 5 4 9 8 12 7 8 11 11 7 9 9 7 10 11 10 10 11 9 9 10 11 12 12 7 6 5 6 6 2 1 2 1 1 2 4 0 6 8 10 9 5 4 9 9 11 12 13 13 11 8 8 9 9 6
33 32 32 30 27 28 30 27 32 32 16 17 16 8 9 1 6 13 4 8 6 2 3 12 20 11 6 7 5 17 16 12 13 12 9 8 10 10 11 9 12 10 8 9 12 8 9 7 11 13 12 13 7 6 10 11 11 6 5 0 5 5 5 1 2 1 0 1 2 1 3 8 7 5 7 8 9 7 9 11 10 9 13 12 12 11 11 11
33 34 32 32 31 28 28 31 29 22 19 21 17 12 7 8 16 13 14 4 9 9 6 12 17 10 11 14 7 15 21 10 13 16 9 11 14 6 10 12 13 10 11 12 11 12 6 7 8 13 13 12 11 5 9 9 10 5 3 1 2 3 4 4 5 1 1 1 2 1 3 6 5 5 5 7 9 6 5 7 8 8 9 10 8 6 9 13
35 34 34 33 32 33 29 30 17 15 17 13 10 4 11 10 11 8 14 6 2 1 4 4 5 4 8 3 13 10 3 3 12 11 9 13 12 8 9 6 7 10 10 12 10 10 8 11 12 8 8 11 10 9 7 10 9 5 4 8 5 4 3 2 5 6 1 3 3 4 1 5 5 9 13 10 5 6 5 8 11 13 11 7 8 12 10 8
35 35 34 33 34 34 35 15 16 15 18 14 11 8 13 9 6 7 9 5 5 5 5 12 4 7 5 10 10 5 10 8 6 7 11 9 5 5 5 8 5 13 12 12 9 4 8 1 10 12 8 9 9 7 5 9 9 8 5 4 5 6 4 6 5 3 2 3 2 1 8 5 5 3 6 6 4 10 5 8 13 13 12 10 12 11 11 12
37 36 35 35 35 38 21 9 12 15 17 12 10 10 12 9 7 9 8 1 5 7 12 3 6 4 6 12 11 14 11 7 4 4 8 8 12 2 11 7 4 2 6 4 1 7 2 3 7 11 11 10 9 12 6 8 6 6 1 3 5 7 7 7 7 4 1 1 1 2 3 3 5 8 5 5 5 10 8 8 8 9 10 11 12 11 9 11
38 36 36 37 38 37 18 14 18 20 19 17 14 15 12 11 10 9 4 6 4 12 8 3 4 1 1 13 12 12 2 19 9 11 15 8 4 1 5 11 10 10 9 7 12 0 8 6 8 11 9 8 10 7 5 6 5 3 1 5 6 9 8 7 5 4 1 2 3 2 1 0 5 7 6 1 4 3 7 9 10 11 12 12 11 11 11 12
37 36 37 37 40 31 9 15 22 20 12 15 13 13 12 13 10 6 3 4 2 3 4 13 1 5 4 11 9 2 4 13 10 12 7 5 4 2 7 6 7 7 4 9 8 2 2 9 14 16 10 9 6 11 9 10 6 3 2 3 3 3 3 6 4 4 0 2 5 4 2 3 7 6 3 1 1 4 6 9 10 11 12 13 12 12 13 10
37 38 39 40 31 14 9 13 12 10 16 15 15 16 17 14 6 3 4 6 5 4 7 3 8 14 10 15 11 3 11 1 2 5 11 10 7 1 0 2 5 5 3 3 4 4 2 1 1 2 9 7 9 1 3 6 5 3 4 5 4 5 3 2 4 3 2 3 6 7 6 4 4 4 7 5 6 8 7 4 5 6 6 8 10 11 9 8
38 38 39 40 22 13 15 14 15 18 17 17 19 17 15 7 6 5 7 3 6 2 3 10 8 13 16 19 13 5 5 4 5 13 9 4 4 2 3 3 3 6 5 3 3 2 2 1 1 0 1 2 4 6 4 1 4 10 2 4 6 2 5 3 2 3 2 5 5 2 3 3 6 4 5 8 5 3 8 7 9 8 9 10 9 9 7 6
38 38 41 30 14 16 21 18 19 21 19 24 23 15 13 10 2 7 5 6 9 9 13 12 12 15 20 19 14 15 11 6 9 14 16 13 12 12 13 12 12 10 8 10 6 1 2 1 1 3 2 4 4 8 2 2 3 4 6 7 8 2 2 1 0 3 4 5 1 3 0 1 8 7 6 6 8 6 5 7 7 7 7 5 4 4 5 5
37 37 40 18 18 12 11 15 15 17 21 23 19 14 11 7 11 8 4 13 3 16 9 16 19 23 20 17 11 8 4 11 6 9 12 7 9 9 5 4 6 7 10 4 7 4 2 1 0 2 3 2 3 12 3 4 1 5 9 7 6 2 2 2 3 1 3 4 3 1 2 3 3 7 11 14 17 15 7 5 4 5 6 6 5 4 4 4
35 36 23 12 11 13 17 19 16 22 20 16 17 15 7 8 9 10 9 9 9 7 17 11 17 14 17 16 13 11 9 2 13 8 11 8 10 12 10 9 9 7 6 6 10 10 7 2 7 5 2 2 1 2 10 9 4 7 3 9 7 6 4 3 3 4 7 7 1 3 2 6 4 5 3 12 12 11 5 5 5 6 6 6 5 4 4 4
35 29 17 12 11 17 19 17 20 23 17 14 14 16 15 10 7 14 6 4 6 9 13 15 17 17 15 8 5 9 4 4 6 11 10 14 12 12 16 14 7 6 4 12 4 3 9 2 2 2 1 1 7 1 1 6 7 4 4 5 5 7 4 5 5 5 2 1 0 1 5 4 6 3 7 4 6 5 4 3 1 5 1 1 3 5 6 6
32 12 13 10 14 15 20 17 19 20 17 15 13 12 15 14 11 8 8 6 9 12 15 17 14 15 11 4 6 15 4 7 7 7 5 11 12 14 10 5 10 13 13 12 4 4 3 4 3 5 2 0 2 1 1 3 8 4 6 6 4 2 8 5 2 0 3 3 6 3 4 6 8 9 11 6 3 7 4 5 3 5 4 2 4 5 5 6
14 15 11 12 15 17 20 20 16 17 14 16 15 13 12 9 4 8 7 13 12 22 19 20 11 13 11 11 10 14 7 9 9 9 8 5 4 9 11 11 10 7 9 9 3 1 11 2 1 3 3 1 0 0 1 2 1 7 3 8 2 2 4 4 4 1 1 4 6 3 7 4 0 6 3 4 6 6 5 7 7 5 4 6 8 8 8 7
14 12 14 15 18 17 19 20 18 14 12 15 16 15 6 5 1 7 6 14 13 15 15 14 7 11 18 17 16 21 11 15 13 9 9 14 5 10 11 8 7 11 7 2 8 3 8 4 1 1 1 5 1 0 2 1 0 3 6 5 8 3 4 2 3 1 2 2 3 2 4 4 6 6 4 2 3 6 7 7 5 8 6 9 8 8 6 6
13 15 9 11 14 18 18 19 15 14 13 12 14 16 5 3 2 7 13 15 13 16 17 9 13 7 12 11 10 12 17 15 15 9 10 8 7 9 20 10 8 7 10 7 7 3 3 7 1 1 1 1 1 2 10 3 3 1 2 1 1 3 3 5 6 3 5 5 1 6 2 6 6 6 5 6 6 7 7 5 8 10 8 7 7 7 7 8
13 8 4 13 16 16 17 18 13 11 12 19 18 10 8 9 4 10 15 21 8 10 4 9 9 12 9 6 16 14 10 9 14 7 6 3 6 2 12 10 8 10 11 5 3 5 3 2 6 1 2 2 4 3 8 10 9 1 3 4 1 1 2 4 0 5 5 4 4 2 4 5 7 8 8 11 11 11 7 7 8 8 9 8 6 6 7 8
7 8 9 12 17 16 16 13 14 17 18 14 10 5 8 7 3 7 18 17 8 1 6 12 12 12 13 11 13 10 8 6 10 9 6 4 12 3 7 14 9 11 5 2 4 3 3 2 8 3 2 5 5 1 2 7 7 9 12 13 13 9 5 8 9 1 2 3 4 3 9 6 9 4 10 11 10 6 6 6 7 7 7 5 5 6 6 5
13 9 8 17 21 23 20 18 13 15 9 15 13 6 5 4 6 8 11 12 12 3 2 6 7 8 11 11 13 11 10 12 12 10 5 7 9 1 5 9 11 11 12 7 7 1 6 3 9 5 5 6 3 2 1 1 1 3 3 9 9 5 6 7 10 6 1 2 3 2 3 10 8 5 6 9 7 7 5 5 6 5 4 3 3 4 4 5
6 7 15 22 22 23 19 16 14 10 7 4 2 2 1 5 6 8 10 8 8 2 6 6 10 10 9 10 11 11 14 6 13 13 6 4 6 5 8 14 14 16 11 3 4 3 10 5 6 2 1 2 3 3 3 1 1 3 5 1 2 7 4 4 4 6 9 3 3 1 7 8 6 3 4 2 1 2 1 2 4 3 3 2 2 2 4 4
9 16 12 7 15 14 15 18 16 12 5 5 9 4 3 2 8 8 8 9 7 6 8 6 6 10 10 6 14 16 16 6 7 8 3 5 6 4 8 13 21 11 16 10 13 8 4 2 9 5 2 2 4 3 4 1 1 1 1 2 1 0 2 1 4 2 3 7 7 7 13 10 5 0 2 1 0 2 4 4 5 5 4 3 3 3 3 3
10 7 8 11 12 10 13 7 16 17 14 12 12 7 6 2 3 10 11 10 3 4 6 5 7 7 3 9 10 8 13 9 5 5 3 3 3 1 6 15 20 12 10 8 9 8 3 6 9 8 10 9 6 10 15 13 8 2 2 4 5 8 7 4 3 1 5 3 6 5 13 4 3 0 1 1 1 5 5 4 3 4 5 4 4 3 3 4
10 16 6 6 6 8 3 5 4 12 8 7 9 3 3 6 1 2 12 4 2 3 3 6 4 10 8 10 6 7 13 1 8 6 9 6 3 1 3 10 16 11 8 16 12 12 3 4 6 11 15 17 15 3 4 13 6 10 9 10 8 5 5 4 4 5 11 4 7 13 18 6 6 2 2 3 2 5 6 6 6 6 5 4 4 4 4 5
5 12 19 15 8 10 5 4 4 14 17 14 10 6 8 8 5 2 2 5 3 6 3 7 6 11 8 16 13 10 12 3 3 10 5 9 0 2 5 8 5 5 13 10 11 6 3 5 11 10 11 4 6 6 8 17 15 16 10 9 9 9 9 8 9 11 5 6 11 16 13 8 8 3 5 5 6 6 6 6 6 6 7 5 5 4 5 4
7 5 12 16 22 22 14 11 12 18 13 15 8 6 6 10 9 8 1 1 4 3 9 1 10 12 17 17 12 9 11 5 7 10 4 1 5 1 5 6 3 5 3 5 5 6 6 10 6 5 5 4 5 8 12 10 12 11 12 11 11 11 10 13 13 13 8 10 20 11 4 12 8 9 12 11 9 10 10 11 9 4 1 2 3 4 5 6
1 3 6 3 8 9 18 20 24 19 19 17 4 14 11 13 12 7 5 4 5 4 6 8 13 14 16 15 15 9 14 8 5 4 6 6 9 6 4 2 1 5 3 3 2 1 5 4 3 6 5 3 2 7 7 12 6 6 11 12 12 12 15 19 20 19 17 15 17 9 8 17 13 11 14 12 11 10 5 1 2 3 6 6 5 5 6 6
3 11 6 2 5 14 11 14 7 9 13 13 4 11 12 17 17 7 2 7 7 5 1 12 12 8 11 13 12 13 17 19 17 9 1 11 2 2 4 4 6 2 3 4 3 1 5 4 6 4 4 3 5 4 4 7 9 6 7 11 13 15 17 20 20 19 17 16 15 9 7 18 18 8 6 5 8 2 3 1 6 8 6 5 6 6 6 8
2 2 3 10 7 12 11 11 12 14 11 11 7 8 8 13 15 13 7 6 16 10 7 15 13 10 7 12 9 14 15 9 12 19 21 21 17 13 12 5 9 7 4 4 2 0 3 2 1 5 6 3 4 6 5 3 4 6 6 9 14 19 19 18 15 9 6 13 14 8 11 20 7 13 9 5 4 5 6 8 7 6 5 6 8 9 9 9
3 1 1 4 4 7 16 13 13 12 13 15 13 10 11 18 10 12 6 4 1 6 11 14 13 13 5 8 9 12 7 9 13 13 18 16 12 8 2 10 15 16 10 12 6 9 7 6 6 5 6 6 6 7 8 6 4 3 9 20 25 18 14 10 11 9 15 18 13 13 22 18 2 4 5 3 7 9 9 9 8 8 5 8 9 10 10 8
Wind_Direction
229 230 211 206 201 189 189 191 188 188 188 186 183 177 173 168 163 162 155 147 146 147 143 139 134 133 129 126 133 140 148 96 93 69 120 215 136 172 32 30 14 3 345 332 358 23 26 62 87 342 71 70 265 213 247 85 137 68 164 128 255 203 180 226 221 194 196 140 195 193 196 132 133 212 161 75 56 92 79 82 26 43 42 61 103 120 130 140
223 231 217 202 202 194 188 190 191 188 188 190 187 179 173 164 164 161 152 148 144 141 139 134 133 130 128 132 135 150 122 93 103 125 217 154 138 151 129 78 41 12 359 43 13 359 42 50 25 357 13 240 290 238 140 250 98 131 163 123 217 197 234 198 258 206 131 203 171 183 165 171 176 141 196 106 152 125 91 55 79 79 59 75 99 119 132 142
228 229 227 210 198 197 191 189 190 191 188 189 190 181 173 167 159 154 151 144 138 137 133 132 129 128 130 135 155 162 108 75 122 223 225 157 151 145 153 116 96 72 67 49 298 10 335 220 349 22 300 200 295 207 136 265 145 233 121 208 239 215 243 347 345 226 193 141 141 153 206 164 195 150 184 142 165 144 154 138 87 121 133 131 128 129 138 144
222 229 231 216 197 197 194 190 190 190 190 190 187 182 174 167 163 154 151 144 142 139 137 134 132 130 136 149 153 173 89 99 241 201 242 161 154 137 147 143 101 70 79 87 286 161 273 256 53 132 305 215 276 141 156 249 119 262 123 193 224 238 305 283 339 327 220 151 158 167 151 151 198 177 146 154 118 212 195 183 159 169 156 152 152 148 146 149
233 226 234 221 201 194 192 189 189 190 189 186 186 181 175 170 165 157 151 145 142 138 135 138 134 133 138 149 168 151 102 23 242 144 216 171 159 143 142 134 99 83 75 356 313 351 336 352 112 113 179 272 304 126 254 215 187 104 210 204 201 65 152 270 327 1 289 152 140 161 146 201 128 108 170 154 173 202 196 201 180 159 156 154 158 162 154 159
230 232 228 233 204 195 192 189 188 188 189 188 187 184 177 172 168 161 154 147 146 142 141 137 133 134 139 144 107 21 155 219 131 256 242 173 153 140 143 139 117 99 87 60 40 354 356 352 54 76 14 299 301 102 282 204 173 234 284 223 222 227 221 251 358 334 301 150 152 159 195 111 154 187 200 168 180 231 213 183 174 157 164 165 157 155 164 167
231 229 229 232 213 195 191 189 188 187 187 187 187 187 178 172 171 164 158 155 146 147 139 133 132 132 130 106 46 114 214 307 211 276 155 154 146 145 146 139 117 110 90 93 75 111 266 29 62 96 122 324 275 81 278 296 190 206 237 227 218 275 203 224 92 328 315 164 174 161 133 138 150 158 197 170 242 202 219 220 167 164 157 146 154 169 170 176
229 231 227 230 221 194 192 189 186 186 185 185 186 187 179 177 171 170 160 158 154 149 138 137 137 132 122 93 106 96 293 249 148 276 138 146 149 147 141 125 121 114 106 131 140 133 223 138 106 39 35 300 253 151 263 292 195 209 238 248 205 77 281 308 94 353 346 61 75 115 141 175 158 174 129 217 182 196 165 115 143 143 147 159 162 173 175 177
227 227 224 223 238 211 191 187 185 185 184 185 184 185 181 178 173 167 164 158 152 146 144 138 142 141 119 104 125 125 223 202 242 169 142 137 164 153 135 128 142 139 129 132 142 146 206 189 97 66 111 337 315 348 281 241 285 210 234 158 131 135 240 273 84 75 346 348 111 105 123 24 213 3 182 190 203 203 150 96 126 140 151 163 173 175 174 179
225 218 220 220 219 223 197 188 184 183 183 182 183 183 179 174 171 166 162 154 144 140 140 140 141 138 126 123 119 208 219 269 157 127 137 134 139 149 154 137 151 134 124 161 143 146 197 196 139 111 107 270 297 289 307 264 232 233 222 177 154 210 147 308 207 165 306 64 110 140 132 113 321 126 243 207 191 173 120 118 134 144 161 169 173 179 182 178
218 213 217 220 216 217 201 191 183 183 183 182 180 180 178 174 169 168 160 154 144 143 142 146 147 140 143 152 171 210 8 323 42 132 129 143 146 160 154 152 148 147 141 141 166 175 198 200 115 119 51 294 326 304 324 240 311 227 174 105 83 158 173 214 96 168 90 322 106 107 110 173 333 47 223 202 182 168 131 142 149 155 166 172 175 178 184 188
215 214 212 218 218 212 205 190 182 182 180 180 178 176 175 170 167 164 158 152 146 145 147 149 154 135 97 169 201 198 337 29 301 155 134 151 171 175 149 155 160 161 150 153 179 211 188 180 87 83 172 23 329 315 260 360 344 235 154 202 227 98 149 217 152 219 112 219 133 140 76 303 190 222 221 203 166 173 143 159 162 165 171 174 179 180 181 192
222 213 212 211 215 209 201 195 184 179 178 177 176 174 169 166 163 158 156 150 153 148 148 148 142 139 129 183 218 167 211 19 349 90 123 151 84 101 150 166 174 164 161 151 174 191 180 91 95 88 346 36 310 280 298 335 268 225 237 157 125 330 291 235 217 131 124 249 111 145 198 253 232 230 228 191 164 159 144 163 173 172 171 178 178 183 190 192
221 213 209 209 207 213 195 195 184 178 176 175 175 170 167 165 159 156 153 156 151 148 146 148 123 134 164 194 134 234 197 70 350 0 166 170 151 183 124 174 164 175 186 166 176 177 139 88 87 90 5 92 286 311 320 311 256 196 218 131 185 155 251 214 168 188 141 191 131 97 190 272 263 250 219 203 167 159 170 177 179 178 179 174 181 183 190 196
221 216 209 204 199 201 203 190 187 178 174 172 171 168 164 160 159 157 151 148 147 147 142 121 135 106 193 178 90 103 90 95 152 214 170 174 155 107 171 136 175 187 205 146 145 135 121 102 90 110 240 239 247 294 286 245 322 271 169 228 259 166 274 274 164 174 165 270 189 115 259 238 262 274 233 180 178 166 175 183 188 186 184 181 178 184 189 195
218 217 210 200 192 189 191 203 190 183 175 169 168 164 159 154 156 157 147 149 147 141 142 131 186 113 123 204 182 125 136 168 206 183 200 184 168 182 167 166 142 143 136 70 149 112 129 123 133 165 233 271 273 269 275 306 257 266 196 240 205 156 229 40 254 212 270 124 340 173 207 316 297 280 138 181 166 179 177 189 195 197 192 185 186 186 188 189
215 212 209 200 192 188 186 192 194 179 176 168 160 160 158 150 144 144 142 132 130 125 147 155 144 72 168 350 99 181 180 187 96 160 184 203 187 141 127 123 153 135 65 79 127 128 139 119 103 141 235 248 240 253 264 251 257 233 190 200 203 174 192 209 313 229 197 146 193 250 180 231 237 292 264 187 176 174 183 195 200 199 196 195 188 189 188 194
211 208 203 201 194 187 181 184 194 177 176 163 155 152 144 136 133 121 116 117 104 104 111 24 106 114 259 111 197 195 118 123 146 165 175 187 192 152 146 160 140 143 123 93 130 130 149 159 154 202 181 218 232 224 220 222 193 197 196 213 280 163 177 180 155 233 143 230 179 177 227 262 265 251 238 232 198 182 199 197 199 195 198 199 195 195 194 196
206 203 198 197 195 187 181 180 186 180 170 154 144 139 122 115 112 105 125 129 116 123 153 193 162 188 211 193 135 99 154 151 120 146 175 181 184 161 158 132 142 143 148 149 217 145 170 146 164 202 206 203 213 219 226 241 178 187 178 196 180 173 225 203 228 256 167 174 192 177 204 225 246 242 250 252 229 196 219 212 205 212 203 198 199 202 200 203
199 196 194 192 189 184 182 174 175 176 154 140 137 137 130 127 128 136 159 156 170 170 13 174 178 109 75 127 157 121 101 132 157 197 167 178 142 170 178 149 167 156 149 173 169 178 158 179 183 199 205 213 215 207 212 245 258 299 203 183 206 183 221 295 253 254 155 120 208 199 215 224 242 233 239 222 211 245 261 250 231 214 203 202 202 202 207 207
193 189 187 184 185 176 174 171 169 168 156 145 148 155 161 155 146 162 170 180 174 189 120 163 184 165 126 140 118 134 122 163 203 172 174 168 164 154 185 153 166 173 175 152 157 179 164 184 196 190 207 214 215 213 220 252 263 263 270 225 233 167 190 257 223 237 296 152 242 203 227 246 247 248 241 215 157 220 217 219 228 227 213 205 199 204 206 212
187 184 181 176 177 166 169 168 163 163 153 147 156 161 148 162 43 131 136 151 219 217 164 168 193 254 92 157 161 134 98 115 180 209 198 163 181 169 187 164 174 178 180 158 143 153 185 194 173 180 195 220 223 205 219 237 246 245 260 234 229 235 180 279 21 126 245 99 269 314 218 250 249 240 252 186 198 220 209 201 208 208 217 215 213 210 208 209
182 181 177 171 170 165 163 158 162 154 148 154 164 158 164 3 127 124 81 88 128 177 26 158 183 208 131 130 163 140 142 156 175 202 182 182 174 204 158 163 176 179 173 176 164 158 178 208 178 176 191 206 224 206 221 237 248 228 259 85 224 202 134 243 290 73 5 128 212 98 191 267 282 269 244 230 206 224 210 210 221 207 209 212 210 200 199 209
177 175 173 170 163 160 158 154 150 152 164 162 158 150 142 130 128 132 96 123 151 211 223 185 171 181 170 153 188 160 154 177 144 188 180 180 183 161 165 169 172 177 184 179 171 169 178 165 188 176 192 196 214 218 208 222 239 262 179 273 285 164 219 148 201 110 343 16 96 65 359 303 249 261 271 246 226 231 219 214 231 237 229 221 217 214 206 200
172 170 169 166 159 153 157 146 154 168 154 154 128 146 133 143 136 129 102 93 86 320 183 140 204 196 167 47 146 159 142 79 181 168 172 178 173 158 190 163 161 192 176 178 163 171 181 185 175 181 180 192 204 222 208 195 237 249 241 190 212 201 147 56 112 112 45 297 250 142 358 288 261 234 228 230 223 215 220 200 218 222 226 223 221 221 220 225
168 166 165 162 157 151 148 159 172 158 155 173 146 180 138 149 103 56 94 94 150 174 135 189 181 179 144 140 156 145 126 171 190 168 168 197 200 178 138 191 174 181 172 172 174 176 184 203 169 184 173 187 200 218 215 170 202 229 255 206 183 155 136 135 149 95 133 175 292 122 176 261 327 277 243 242 233 250 235 208 218 216 222 217 221 219 215 215
167 165 162 160 155 146 149 189 150 144 160 173 145 141 139 108 63 58 80 346 187 186 163 106 167 174 173 159 157 135 166 204 56 128 185 198 187 229 168 171 158 147 167 148 135 226 74 139 180 178 175 178 190 206 226 167 169 233 241 138 134 117 134 178 158 165 184 226 5 50 126 188 288 286 249 217 209 235 241 239 237 233 230 226 226 222 218 219
166 164 161 159 156 160 171 140 156 172 174 142 140 129 123 98 75 58 69 137 230 131 185 189 212 66 44 168 168 167 235 130 133 198 193 190 207 274 183 182 175 167 172 166 190 226 155 176 179 178 179 176 194 186 205 165 161 213 247 161 161 162 171 154 144 156 155 121 271 308 275 266 259 268 299 231 209 258 242 230 232 226 226 228 229 227 223 220
164 164 162 161 162 165 127 147 165 172 136 117 103 115 108 84 73 98 169 183 121 116 94 135 47 144 118 148 187 177 114 158 165 170 157 183 237 137 191 200 168 158 181 179 177 190 289 177 190 172 171 193 176 186 184 169 185 253 200 95 87 84 85 138 123 117 31 99 252 238 187 185 281 272 297 348 183 242 240 233 230 222 219 220 225 227 224 222
162 166 163 161 154 134 148 144 150 118 123 114 112 105 100 101 76 157 190 232 136 175 180 132 184 165 155 159 185 191 155 3 88 115 162 177 193 339 240 169 140 122 95 28 120 199 202 1 98 91 186 167 158 150 157 189 177 118 93 66 32 38 45 33 74 97 73 273 251 230 221 158 284 265 209 168 218 197 227 282 266 250 245 244 237 230 226 226
160 162 160 155 162 158 129 148 152 136 124 114 105 97 110 133 165 168 194 163 117 112 108 161 159 154 163 162 174 184 138 117 121 141 153 161 182 259 151 102 72 72 59 53 46 342 10 29 95 262 152 336 111 108 7 132 149 138 128 125 86 353 15 27 346 40 156 266 260 281 228 163 195 290 278 245 282 236 196 209 229 241 237 235 235 236 229 210
157 155 153 159 147 154 156 159 149 137 137 127 116 121 143 152 235 205 171 146 155 178 157 156 168 163 172 177 171 169 156 132 156 159 164 181 173 178 199 180 167 159 173 172 178 57 34 11 255 11 252 148 128 101 5 67 140 111 109 124 141 204 49 307 9 234 225 204 274 334 248 351 246 227 250 280 269 287 227 210 222 231 248 250 232 198 178 169
154 154 155 144 143 151 133 131 140 135 134 134 129 143 159 178 185 209 154 173 190 160 204 163 165 169 173 165 177 150 135 150 185 169 153 163 161 205 224 180 206 176 174 189 116 102 279 299 327 293 19 201 164 156 155 120 211 125 153 150 137 115 107 187 261 225 311 289 267 251 295 259 242 285 246 250 260 243 227 231 236 207 200 205 207 204 188 185
155 152 149 151 147 128 138 142 141 137 135 136 136 144 172 197 192 192 162 199 158 173 145 164 155 150 160 176 173 155 154 163 158 165 157 159 175 184 217 237 185 148 105 177 154 177 143 246 245 155 187 165 149 181 165 149 127 199 142 155 172 149 145 187 183 191 212 209 270 277 93 232 126 244 244 232 249 279 258 230 210 213 213 203 195 189 201 203
152 151 135 134 127 136 138 138 143 140 132 136 142 160 173 192 182 180 169 175 136 135 144 144 142 149 175 171 148 179 139 135 175 149 170 158 193 190 195 202 202 126 123 139 228 128 189 142 289 329 240 63 179 233 116 120 146 200 169 94 129 208 142 157 197 161 168 171 337 277 209 188 182 253 282 235 279 288 285 236 235 217 240 168 176 195 202 212
149 144 132 131 135 146 140 141 150 141 138 138 150 174 189 185 181 170 187 145 153 146 142 137 146 152 159 136 170 174 170 120 194 140 197 196 189 191 196 184 189 183 166 173 151 149 93 207 339 318 54 115 193 189 206 171 173 213 116 191 207 144 100 101 56 160 110 55 249 183 312 292 296 317 280 265 218 261 309 284 266 255 259 291 235 231 231 228
137 137 120 134 133 150 142 142 155 141 146 149 159 190 197 201 205 160 153 156 152 135 140 144 178 153 166 168 170 175 184 114 179 152 194 162 217 210 196 209 188 184 187 135 188 206 153 203 338 45 197 340 119 137 305 57 168 105 162 207 164 108 119 134 199 342 111 171 258 124 205 287 52 272 318 304 261 263 264 253 238 239 236 233 233 230 228 227
134 120 120 138 150 146 144 146 144 143 146 160 182 197 198 213 221 126 115 110 132 143 145 149 169 172 171 167 179 172 171 163 184 175 180 172 236 192 189 193 203 191 178 212 137 215 113 81 295 315 205 274 352 43 54 337 344 167 190 189 140 228 229 268 115 189 199 236 262 267 229 248 179 231 333 317 219 251 244 248 269 265 233 229 237 242 250 256
123 123 119 142 147 145 142 141 142 147 152 175 196 195 184 229 233 141 143 137 152 155 155 180 142 210 166 178 162 165 166 181 167 186 145 215 201 190 186 176 193 172 176 162 154 173 122 136 277 319 107 253 12 116 188 209 330 359 53 62 57 123 177 146 198 173 125 243 200 293 121 233 207 216 208 260 239 240 241 223 233 239 241 233 230 228 225 227
127 121 104 154 147 141 138 141 141 151 170 186 189 204 155 191 192 160 149 145 160 150 182 153 170 140 174 172 156 162 189 164 165 191 184 186 187 219 180 171 176 180 174 147 146 163 165 103 157 270 294 106 189 192 202 159 150 108 126 199 295 27 244 113 108 146 172 181 197 207 283 275 252 212 197 222 233 234 218 213 225 236 244 236 229 214 217 218
135 121 127 152 141 137 131 133 156 175 189 202 193 168 165 184 116 162 153 149 142 63 146 161 158 165 163 141 170 163 156 141 169 182 184 157 183 163 220 177 142 172 129 147 130 168 101 114 146 153 105 216 254 241 189 197 197 180 171 186 181 137 123 169 237 30 130 156 228 178 253 264 268 210 201 219 233 227 224 199 209 233 236 242 234 224 213 212
136 131 137 153 144 148 147 156 188 185 185 185 180 161 168 105 136 169 156 156 149 148 89 133 160 147 148 163 161 167 159 170 176 177 200 163 199 134 191 145 152 154 164 181 168 248 138 110 106 152 214 189 238 298 249 312 52 228 174 210 186 180 142 162 197 227 39 245 123 145 244 255 239 211 203 219 223 220 217 178 211 220 232 253 264 244 224 209
128 86 136 150 157 159 162 173 169 168 177 179 36 328 190 159 149 172 152 168 155 144 136 164 172 144 188 156 160 159 162 177 172 194 166 144 182 193 178 156 147 158 156 190 90 192 79 104 83 3 39 308 315 298 290 261 7 292 269 359 152 200 183 165 170 178 174 205 201 244 251 255 274 257 236 229 228 242 271 218 225 242 250 255 249 223 213 206
115 124 125 144 164 171 169 166 167 187 179 155 185 190 322 171 144 160 165 172 154 170 160 148 169 177 157 161 158 169 169 146 210 170 128 166 182 196 155 159 158 167 171 198 176 201 107 268 113 118 54 360 336 349 332 317 108 228 251 179 206 160 67 174 109 74 155 220 174 162 242 257 260 245 199 168 329 290 267 263 210 234 249 254 240 239 229 198
112 73 81 145 173 194 192 205 180 165 168 170 174 157 170 136 223 170 160 173 124 142 130 170 159 125 89 148 158 153 177 166 141 212 110 149 158 16 196 170 170 174 187 167 161 153 106 179 142 142 160 171 194 204 206 201 187 227 239 156 182 179 173 115 140 160 194 262 141 201 247 212 203 93 74 281 311 293 280 250 240 223 243 228 242 237 214 173
154 133 133 100 181 201 251 17 128 149 161 174 170 213 128 139 143 34 145 164 146 112 103 127 112 112 127 132 130 156 177 31 137 186 156 166 141 330 216 193 175 176 163 153 151 150 148 160 195 179 184 197 203 150 77 112 123 194 204 178 191 178 181 137 114 147 208 187 181 228 231 209 194 164 64 249 260 241 259 275 266 263 257 242 236 224 204 195
154 147 152 147 145 223 207 231 176 172 177 175 174 173 167 156 147 102 308 145 222 138 116 140 158 141 169 150 161 167 173 104 62 134 169 144 283 194 32 136 52 55 148 137 159 107 113 179 213 204 206 189 114 155 178 146 177 203 167 188 185 172 178 167 186 218 124 96 245 233 235 246 222 185 211 221 240 244 252 258 274 270 253 221 221 218 221 222
157 203 188 166 160 172 196 235 208 184 186 172 165 140 161 145 163 157 86 283 150 168 119 338 165 166 166 164 149 154 169 160 143 159 126 92 107 103 86 355 80 317 156 147 161 133 144 206 214 180 222 110 149 154 161 159 179 185 184 183 178 179 165 184 213 221 142 197 232 231 219 246 226 181 214 205 200 213 220 226 227 235 229 202 190 179 190 207
336 115 167 207 350 183 183 181 178 179 172 181 140 161 159 158 173 167 153 151 143 192 132 154 183 169 167 154 154 155 163 150 212 166 153 158 147 129 80 61 64 20 84 112 115 155 144 220 164 171 199 125 253 162 167 159 179 164 181 185 185 174 190 195 208 212 200 221 236 241 234 251 234 193 212 209 206 213 221 128 91 152 212 204 183 190 202 210
147 157 173 116 359 152 116 93 130 156 179 180 141 196 165 166 168 153 152 148 151 192 141 155 170 164 153 160 157 164 180 184 164 142 155 116 114 71 147 179 154 21 58 137 141 319 136 256 136 129 164 204 229 204 154 165 150 181 203 186 179 188 201 209 213 215 210 230 240 247 259 265 253 186 225 209 211 254 52 161 197 213 200 173 179 201 216 219
359 340 332 161 127 151 136 144 158 173 173 188 184 187 174 178 171 162 164 172 167 163 167 169 156 143 152 158 164 176 185 163 147 162 162 150 168 189 148 233 150 138 142 124 118 53 107 231 41 117 167 265 231 185 173 103 141 166 188 197 198 194 204 212 214 209 179 221 233 242 254 250 272 118 210 178 151 163 204 221 226 232 196 174 182 204 214 225
321 333 95 112 70 160 153 158 163 158 194 194 188 182 182 184 168 156 131 349 122 161 164 147 149 134 171 160 184 186 160 140 164 159 167 168 154 161 105 150 160 157 169 172 168 156 167 136 155 148 165 221 237 163 129 117 84 269 237 209 201 201 205 209 221 204 204 208 213 220 231 237 150 185 185 157 160 191 205 217 226 236 212 188 193 202 215 226